Weather History for Waukesha, WI

Change the Weather History Date:

Tuesday, April 8, 2014

  Actual Average Record
Temperature  
Mean Temperature 43 °F -  
Max Temperature 53 °F 51 °F 74 °F (1971)
Min Temperature 33 °F 31 °F 16 °F (1982)
Degree Days  
Heating Degree Days 22    
Moisture  
Dew Point 38 °F    
Average Humidity 87    
Maximum Humidity 100    
Minimum Humidity 51    
Precipitation  
Precipitation 0.24 in - - ()
Sea Level Pressure  
Sea Level Pressure 29.76 in    
Wind  
Wind Speed 7 mph (NW)    
Max Wind Speed 15 mph    
Max Gust Speed -    
Visibility 7 miles    
Events Rain    
Averages and records for this station are not official NWS values.
T = Trace of Precipitation, MM = Missing Value Source: NWS Daily Summary

Daily Weather History Graph

Daily Weather History Graph

Search for Another Location

Airport:

Trip Planner

Search our weather history database for the weather conditions in past years. The results will help you decide how hot, cold, wet, or windy it might be!

Date:

Astronomy

Apr. 08, 2014 Rise Set
Actual Time 6:22 AM CDT 7:27 PM CDT
Civil Twilight 5:53 AM CDT 7:56 PM CDT
Nautical Twilight 5:19 AM CDT 8:31 PM CDT
Astronomical Twilight 4:42 AM CDT 9:07 PM CDT
Moon 1:12 PM CDT (4/8) 2:44 AM CDT (4/8)
Length of Visible Light 14h 02m
Length of Day
13h 04m
Waxing Gibbous, 63% of the Moon is Illuminated
Apr 8
Waxing Gibbous
Apr 15
Full
Apr 22
Last Quarter
Apr 29
New
May 6
First Quarter

Hourly Weather History & Observations

Time (CDT) Temp. Windchill Dew Point Humidity Pressure Visibility Wind Dir Wind Speed Gust Speed Precip Events Conditions
12:15 AM 44.6 °F 41.4 °F 41.0 °F 87% 29.64 in 10.0 mi WNW 5.8 mph - N/A   Overcast
12:35 AM 44.6 °F 40.7 °F 41.0 °F 87% 29.64 in 10.0 mi NW 6.9 mph - N/A   Overcast
12:55 AM 44.6 °F 40.2 °F 41.0 °F 87% 29.64 in 10.0 mi NW 8.1 mph - N/A   Mostly Cloudy
1:15 AM 44.6 °F 40.7 °F 41.0 °F 87% 29.64 in 7.0 mi NW 6.9 mph - N/A   Scattered Clouds
1:35 AM 44.6 °F 40.7 °F 41.0 °F 87% 29.64 in 7.0 mi WNW 6.9 mph - N/A   Light Drizzle
1:55 AM 44.6 °F 38.8 °F 42.8 °F 93% 29.64 in 7.0 mi WNW 11.5 mph - N/A Rain Light Rain
2:15 AM 42.8 °F 39.3 °F 42.8 °F 100% 29.65 in 2.5 mi NW 5.8 mph - 0.06 in Rain Rain
2:35 AM 42.8 °F 38.0 °F 42.8 °F 100% 29.65 in 2.5 mi NW 8.1 mph - 0.11 in Rain Rain
2:55 AM 42.8 °F 38.6 °F 42.8 °F 100% 29.65 in 2.5 mi NW 6.9 mph - 0.18 in Rain Rain
3:15 AM 42.8 °F 38.0 °F 42.8 °F 100% 29.66 in 2.5 mi WNW 8.1 mph - 0.04 in Rain Rain
3:35 AM 42.8 °F 40.1 °F 42.8 °F 100% 29.66 in 3.0 mi NW 4.6 mph - 0.05 in Rain Light Rain
3:55 AM 42.8 °F 40.1 °F 41.0 °F 93% 29.65 in 3.0 mi WNW 4.6 mph - 0.06 in Rain Light Rain
4:15 AM 42.8 °F 40.1 °F 41.0 °F 93% 29.66 in 3.0 mi West 4.6 mph - N/A   Overcast
4:35 AM 41.0 °F 37.1 °F 41.0 °F 100% 29.66 in 3.0 mi WNW 5.8 mph - N/A   Overcast
4:55 AM 41.0 °F 35.8 °F 41.0 °F 100% 29.66 in 4.0 mi WNW 8.1 mph - N/A   Overcast
5:15 AM 41.0 °F 35.8 °F 39.2 °F 93% 29.67 in 4.0 mi WNW 8.1 mph - N/A   Mostly Cloudy
5:35 AM 37.4 °F 32.1 °F 37.4 °F 100% 29.68 in 4.0 mi WNW 6.9 mph - N/A   Scattered Clouds
5:45 AM 39.2 °F 32.0 °F 39.2 °F 100% 29.68 in 4.0 mi WNW 11.5 mph - N/A   Mostly Cloudy
6:45 AM 37.4 °F 29.8 °F 37.4 °F 100% 29.71 in 4.0 mi WNW 11.5 mph - N/A   Scattered Clouds
7:45 AM 37.4 °F 29.8 °F 37.4 °F 100% 29.74 in 5.0 mi WNW 11.5 mph - N/A   Overcast
8:45 AM 39.2 °F 32.0 °F 37.4 °F 93% 29.74 in 10.0 mi WNW 11.5 mph - N/A   Mostly Cloudy
9:45 AM 42.8 °F 36.6 °F 37.4 °F 81% 29.76 in 10.0 mi WNW 11.5 mph - N/A   Mostly Cloudy
10:45 AM 46.4 °F 41.1 °F 37.4 °F 71% 29.77 in 10.0 mi WNW 11.5 mph - N/A   Scattered Clouds
11:45 AM 51.8 °F - 39.2 °F 62% 29.78 in 10.0 mi WNW 11.5 mph - N/A   Scattered Clouds
12:45 PM 51.8 °F - 35.6 °F 54% 29.77 in 10.0 mi WNW 15.0 mph - N/A   Overcast
1:45 PM 53.6 °F - 35.6 °F 51% 29.78 in 10.0 mi WNW 15.0 mph - N/A   Mostly Cloudy
4:45 PM 50.0 °F - 37.4 °F 62% 29.81 in 10.0 mi NNW 11.5 mph - N/A Rain Rain
5:45 PM 50.0 °F - 35.6 °F 58% 29.83 in 10.0 mi North 3.5 mph - N/A   Mostly Cloudy
6:45 PM 44.6 °F - 37.4 °F 76% 29.86 in 10.0 mi Calm Calm - N/A   Scattered Clouds
7:45 PM 44.6 °F 38.8 °F 35.6 °F 71% 29.89 in 10.0 mi North 11.5 mph - N/A   Overcast
8:45 PM 41.0 °F - 35.6 °F 81% 29.91 in 10.0 mi Calm Calm - N/A   Scattered Clouds
9:15 PM 37.4 °F - 33.8 °F 87% 29.91 in 10.0 mi Calm Calm - N/A   Scattered Clouds
9:35 PM 35.6 °F - 32.0 °F 87% 29.91 in 10.0 mi Calm Calm - N/A   Clear
9:55 PM 35.6 °F - 33.8 °F 93% 29.92 in 10.0 mi Calm Calm - N/A   Clear
10:15 PM 33.8 °F - 32.0 °F 93% 29.93 in 10.0 mi Calm Calm - N/A   Scattered Clouds
10:35 PM 35.6 °F 32.8 °F 35.6 °F 100% 29.93 in 10.0 mi NE 3.5 mph - N/A   Mostly Cloudy
10:55 PM 37.4 °F - 35.6 °F 93% 29.94 in 10.0 mi Calm Calm - N/A   Mostly Cloudy
11:15 PM 37.4 °F 34.9 °F 35.6 °F 93% 29.95 in 10.0 mi North 3.5 mph - N/A   Mostly Cloudy
11:35 PM 37.4 °F - 35.6 °F 93% 29.95 in 10.0 mi Calm Calm - N/A   Overcast
11:55 PM 37.4 °F 33.8 °F 33.8 °F 87% 29.95 in 10.0 mi ENE 4.6 mph - N/A   Overcast